Location: Poughquag
(41.6090°N, 73.6820°W)
Time: 12:38:09
(UTC-04:00)

Tiros 1 despin weight - Pass Details

Date: 05 June 2020
Orbit: 593 x 642 km, 48.2° (Epoch: 07 July)

Event Time Altitude Azimuth Distance (km) Brightness Sun altitude
Rises 10:44:10 0° 266° (W) 2,930 ? 57.0°
Reaches altitude 10° 10:46:36 10° 273° (W) 2,017 ? 57.4°
Maximum altitude 10:51:03 44° 346° (NNW) 877 ? 58.2°
Drops below altitude 10° 10:55:26 10° 59° (ENE) 1,993 ? 58.9°
Sets 10:57:50 0° 66° (ENE) 2,891 ? 59.3°
